Погода в Сергиеве

Россия / Республика Карелия     62°54′09″N   36°01′05″E
темп.,
°C
ветер,
м/с
пор.,
м/с
влажн.,
%
обл.,
%
осадки,
мм/ч
давл.,
гПа
погр.,
м
28 сентября, вт
вт2800:00+5ююв009353 0.0 103310
03:00+5ююз119414 0.0 103410
06:00+4ююз119543 0.0 103412
09:00+7юз23865 0.0 1034159
12:00+11зюз23697 0.0 1034570
15:00+13зюз236388 0.0 1034738
18:00+9юз238555 0.0 103461
21:00+7зюз229319 0.0 103541
29 сентября, ср
ср2900:00+6зюз229473 0.0 103526
03:00+6з229433 0.0 103532
06:00+5з2295100 0.0 103523
09:00+8зсз238367 0.0 1035143
12:00+11сз2368100 0.0 1035422
15:00+12зсз2364100 0.0 1034515
18:00+9сз228478 0.0 103413
21:00+7зсз119256 0.0 103410
30 сентября, чт
чт3000:00+6зсз119228 0.0 103410
03:00+6з119358 0.0 103411
06:00+5з119548 0.0 103413
09:00+8з128432 0.0 1034138
12:00+12з236530 0.0 1034538
15:00+13з236115 0.0 1033751
18:00+8зюз22845 0.0 103233
21:00+6зюз11925 0.0 103213
1 октября, пт
пт100:00+5юз11936 0.0 103311
03:00+4зюз22945 0.0 103215
06:00+4юз22956 0.0 103216
09:00+6юз24855 0.0 1031168
12:00+10юз35635 0.0 1031632
15:00+11юз35575 0.0 1030800
18:00+7ююз25835 0.0 1029104
21:00+5ююз279428 0.0 1029142
2 октября, сб
сб200:00+6ююз2790100 0.0 1029222
03:00+7юз2792100 0.0 1029268
06:00+7юз2594100 0.0 1028261
09:00+8юз2586100 0.0 1029519
12:00+9юз3675100 0.0 1029803
15:00+10ююз3682100 0.0 1028596
18:00+9ююз3883100 0.0 1028409
21:00+8ю2791100 0.0 1028207